Location: Arcones
(41.1182°N, 3.7238°W)
Time: 20:55:39
(UTC+00:00)

Meteor 2-20 Rocket - Visible Passes

Search period start: 16 March 2026 00:00
Search period end: 26 March 2026 00:00
Orbit: 872 x 1022 km, 82.5° (Epoch: 16 March)

Date Brightness Start Highest point End Pass type
(mag) Time Alt. Az. Time Alt. Az. Time Alt. Az.
16 Mar 6.8 19:38:15 10° NNW 19:43:12 26° W 19:48:02 10° SW visible
17 Mar 7.9 05:36:29 10° ESE 05:39:18 13° E 05:42:09 10° NE visible
17 Mar 7.4 19:56:16 10° NW 19:59:49 16° W 20:03:18 10° WSW visible
18 Mar 7.5 05:51:14 10° SE 05:55:54 21° E 06:00:34 10° NE visible
19 Mar 5.8 18:43:44 10° NNW 18:49:37 47° W 18:55:15 10° SSW visible
20 Mar 6.7 19:01:08 10° NNW 19:06:21 30° W 19:11:23 10° SW visible
21 Mar 8.2 05:01:01 10° E 05:02:34 11° ENE 05:04:06 10° ENE visible
21 Mar 7.4 19:18:56 10° NW 19:22:59 19° W 19:26:56 10° SW visible
22 Mar 7.6 05:14:57 10° ESE 05:19:06 18° E 05:23:16 10° NE visible
22 Mar 8.0 19:37:58 10° WNW 19:39:32 11° WNW 19:41:04 10° W visible
23 Mar 7.0 05:30:24 10° SE 05:35:46 28° E 05:41:08 10° NNE visible
